[[{"header":{"parameterUnit":"m.s-1","parameterCategory":1,"la1":30.2991,"la2":30.254,"lo1":-89.0895,"lo2":-89.0444,"dy":0.0017,"dx":0.0017,"nx":28,"ny":28,"refTime":"2025-04-25T21:00:00:Z","depth":0,"parameterNumber":2,"parameterNumberName":"U-component_of_WINDS"},"data":[0,0,0,0,0,0,0,0,0,0,0,0,0,0,0,0,0,0,0,0,0,0,0,0,0,0,0,0,0,0,0,0,0,0,0,0,0,0,0,0,0,0,0,0,0,0,0,0,0,0,0,0,0,0,0,0,0,0,0.4834,0.4835,0,0.4856,0.4857,0.4857,0.4868,0.4868,0.4868,0.4868,0.4891,0.4891,0.4892,0,0,0,0,0,0,0,0,0,0,0,0,0,0.4802,0.4803,0.4834,0.4835,0.4835,0.4856,0.4857,0.4857,0.4868,0.4868,0.4868,0.4868,0.489,0.4891,0.4892,0,0,0,0,0,0,0,0,0,0,0,0,0,0.4819,0.4803,0.4834,0.4843,0.4844,0.4856,0.4857,0.4857,0.4868,0.4868,0.4868,0.4868,0.489,0.4891,0.4892,0.4898,0,0,0.4895,0.4895,0,0,0,0,0,0,0,0,0.4818,0.4821,0.4841,0.4842,0.4843,0.4859,0.4854,0.4871,0.4868,0.4859,0.4868,0.4868,0.488,0.4882,0.4886,0.4899,0.49,0.4895,0.4895,0.4896,0.4896,0,0,0,0,0,0,0,0.4817,0.482,0.4843,0.4842,0.4843,0.4846,0.4848,0.4857,0.4869,0.4859,0.486,0.4863,0.4881,0.4885,0.4887,0.49,0.4895,0.4896,0.4896,0.4897,0.4918,0.4918,0,0,0,0,0,0,0.4815,0.4819,0.4842,0.4844,0.4831,0.4846,0.4849,0.4854,0.4869,0.4871,0.4863,0.4863,0.4884,0.4886,0.4888,0.4895,0.4896,0.4897,0.4897,0.4918,0.4918,0.4918,0,0,0,0,0,0,0.4814,0.4817,0.4841,0.4831,0.4835,0.4847,0.4853,0.4855,0.4859,0.4872,0.4874,0.4865,0.4884,0.4886,0.4895,0.4896,0.4897,0.4898,0.4918,0.4918,0.4918,0.491,0,0,0,0,0,0,0.4813,0.4816,0.4818,0.4831,0.4835,0.4848,0.4853,0.4855,0.486,0.4861,0.4874,0.4876,0.4884,0.4894,0.4896,0.4897,0.4899,0.4918,0.4918,0.4918,0.491,0.491,0.4909,0,0,0,0,0,0.4812,0.4815,0.4818,0.4821,0.4838,0.4848,0.4851,0.4859,0.4861,0.4863,0.4871,0.4876,0.4895,0.4894,0.4897,0.4899,0.4918,0.4918,0.4918,0.491,0.491,0.4909,0,0,0,0,0,0,0.4802,0.4817,0.4821,0.4829,0.4837,0.485,0.4853,0.4858,0.4867,0.4867,0.4877,0.488,0.4888,0.4894,0.4893,0.4905,0.4907,0.4908,0.49,0.49,0.49,0.4898,0.4899,0,0,0,0,0,0.4801,0.4808,0.4821,0.4827,0.4831,0.4841,0.4846,0.4852,0.4861,0.4865,0.4873,0.4882,0.489,0.4896,0.4904,0.4911,0.4914,0.4914,0.4913,0.4913,0.4913,0.4918,0.4918,0.4918,0.4918,0.4918,0,0,0.4799,0.4808,0.4812,0.4825,0.4832,0.4839,0.4844,0.4851,0.4857,0.4866,0.4874,0.4881,0.4892,0.49,0.4904,0.4905,0.4914,0.4913,0.4912,0.4913,0.4918,0.4918,0.4917,0.4918,0.4918,0.4918,0,0,0.4798,0.4806,0.4811,0.4818,0.4829,0.4836,0.4838,0.485,0.4855,0.4864,0.487,0.4877,0.4891,0.4898,0.4904,0.4906,0.4911,0.4908,0.4906,0.491,0.491,0.491,0.491,0.4911,0.4908,0.4908,0.4908,0,0.4794,0.4805,0.4814,0.4821,0.4826,0.4834,0.484,0.4847,0.486,0.4864,0.4865,0.4882,0.489,0.49,0.49,0.4905,0.4907,0.4907,0.4909,0.4909,0.4909,0.491,0.491,0.4908,0.4908,0.4908,0.4908,0,0.4799,0.4807,0.481,0.4822,0.4828,0.4834,0.4844,0.4849,0.4854,0.4861,0.487,0.488,0.489,0.4893,0.4898,0.4903,0.4904,0.4907,0.491,0.4909,0.491,0.491,0.4907,0.4908,0.4908,0.4908,0,0,0.4793,0.481,0.4811,0.4817,0.4829,0.4835,0.4842,0.4852,0.4856,0.4865,0.487,0.4882,0.4885,0.4891,0.4897,0.4901,0.4902,0.4904,0.4904,0.4903,0.4908,0.4906,0.4906,0.4905,0.4905,0.4905,0.4907,0,0.4795,0.4807,0.4815,0.4824,0.4831,0.4839,0.4845,0.4853,0.486,0.4866,0.4874,0.4882,0.4885,0.4889,0.4893,0.4901,0.4903,0.4901,0.4911,0.4911,0.4908,0.4906,0.4904,0.4905,0.4908,0.4908,0.4908,0,0.4798,0.4806,0.4816,0.4827,0.483,0.4835,0.4845,0.4852,0.4861,0.4866,0.4873,0.4879,0.4886,0.4888,0.4899,0.4897,0.4901,0.4906,0.4906,0.4908,0.4909,0.4908,0.4906,0.4906,0.4909,0.4908,0.4908,0,0.4792,0.4806,0.4813,0.4818,0.4832,0.4835,0.4841,0.4851,0.4856,0.4865,0.4868,0.4877,0.4882,0.489,0.4898,0.4899,0.4908,0.491,0.4912,0.4911,0.4913,0.4913,0.4912,0.4916,0.4916,0.4916,0.4916,0,0.4793,0.4798,0.4811,0.4816,0.4822,0.4832,0.4838,0.4845,0.4853,0.4859,0.4867,0.4872,0.4883,0.489,0.4897,0.4904,0.4907,0.4911,0.4912,0.491,0.4909,0.4913,0.4913,0.4916,0.4916,0.4916,0.4916,0,0.4788,0.4797,0.4806,0.4818,0.4821,0.4825,0.4836,0.4841,0.4848,0.4855,0.4858,0.4869,0.4877,0.4886,0.4898,0.4903,0.491,0.4913,0.4907,0.4908,0.4909,0.4908,0.491,0.4911,0.4914,0.4914,0.4914,0,0.4788,0.4792,0.4805,0.481,0.4815,0.4823,0.4828,0.4837,0.4843,0.4854,0.4857,0.4866,0.4874,0.4888,0.4897,0.4906,0.4908,0.4908,0.491,0.4907,0.4908,0.4908,0.4909,0.4908,0.4908,0.4908,0.4908,0,0.4786,0.479,0.4798,0.4807,0.4813,0.4821,0.4829,0.4832,0.4843,0.4849,0.4857,0.4863,0.4875,0.4884,0.4894,0.4901,0.4906,0.4907,0.4908,0.4906,0.4902,0.4904,0.4905,0.4907,0.4907,0.4907,0.4907,0.4907,0.4784,0.4788,0.4798,0.4806,0.4813,0.482,0.4825,0.4833,0.484,0.485,0.4855,0.4864,0.4874,0.4888,0.4894,0.4901,0.4902,0.4904,0.4904,0.4904,0.4903,0.4901,0.4903,0.4903,0.4903,0.4903,0.4903,0,0.4783,0.4789,0.4797,0.4807,0.4814,0.4818,0.4827,0.4832,0.484,0.4848,0.4855,0.4865,0.4874,0.4884,0.4893,0.4897,0.49,0.4899,0.4899,0.49,0.4901,0.49,0.4897,0.4897,0.4897,0.4897,0.4897,0.4897,0.4783,0.479,0.4796,0.4807,0.4813,0.4822,0.4826,0.4833,0.484,0.4851,0.4858,0.4864,0.4873,0.4883,0.4891,0.4894,0.4897,0.4895,0.4899,0.49,0.49,0.4901,0.4899,0.4896,0.4896,0.4897,0.4897,0.4897]},{"header":{"parameterUnit":"m.s-1","parameterCategory":1,"la1":30.2991,"la2":30.254,"lo1":-89.0895,"lo2":-89.0444,"dy":0.0017,"dx":0.0017,"nx":28,"ny":28,"refTime":"2025-04-25T21:00:00:Z","depth":0,"parameterNumber":3,"parameterNumberName":"V-component_of_WINDS"},"data":[0,0,0,0,0,0,0,0,0,0,0,0,0,0,0,0,0,0,0,0,0,0,0,0,0,0,0,0,0,0,0,0,0,0,0,0,0,0,0,0,0,0,0,0,0,0,0,0,0,0,0,0,0,0,0,0,0,0,2.087,2.0871,0,2.0892,2.0892,2.0892,2.088,2.0879,2.0879,2.0878,2.0898,2.0899,2.09,0,0,0,0,0,0,0,0,0,0,0,0,0,2.0816,2.0817,2.087,2.0871,2.0871,2.0892,2.0892,2.0892,2.088,2.0879,2.0879,2.0878,2.0897,2.0899,2.09,0,0,0,0,0,0,0,0,0,0,0,0,0,2.0839,2.0818,2.087,2.0867,2.0867,2.0892,2.0892,2.0892,2.088,2.0879,2.0879,2.0878,2.0897,2.0899,2.09,2.0928,0,0,2.0905,2.0906,0,0,0,0,0,0,0,0,2.0838,2.0841,2.0868,2.0868,2.0868,2.0882,2.088,2.0904,2.0881,2.0875,2.0878,2.0877,2.0893,2.0895,2.0901,2.0929,2.093,2.0905,2.0906,2.0907,2.0907,0,0,0,0,0,0,0,2.0836,2.084,2.0879,2.0868,2.0868,2.0864,2.0866,2.0885,2.0889,2.0876,2.0875,2.0878,2.0893,2.0899,2.0901,2.093,2.0905,2.0907,2.0908,2.0908,2.0981,2.0982,0,0,0,0,0,0,2.0835,2.0839,2.0878,2.0879,2.085,2.0866,2.0868,2.0879,2.0889,2.0889,2.0878,2.0877,2.0897,2.0899,2.0902,2.0935,2.0907,2.0908,2.0909,2.098,2.0981,2.0982,0,0,0,0,0,0,2.0834,2.0839,2.0877,2.0859,2.0863,2.0868,2.0879,2.0879,2.0886,2.0891,2.0891,2.0884,2.0897,2.09,2.0921,2.0935,2.0909,2.091,2.0979,2.098,2.0981,2.1001,0,0,0,0,0,0,2.0832,2.0838,2.085,2.0859,2.0865,2.0897,2.088,2.0881,2.0889,2.0887,2.0896,2.0897,2.0896,2.0919,2.0923,2.0937,2.0912,2.0977,2.0979,2.0981,2.0999,2.1003,2.1006,0,0,0,0,0,2.0831,2.0854,2.085,2.0855,2.0879,2.0898,2.0901,2.09,2.089,2.0901,2.0904,2.0897,2.0933,2.0922,2.0926,2.094,2.0977,2.0979,2.0981,2.0997,2.1002,2.1006,0,0,0,0,0,0,2.0845,2.0855,2.0851,2.0878,2.0888,2.0896,2.091,2.0905,2.0917,2.0915,2.0912,2.0914,2.0937,2.0941,2.0928,2.0967,2.0953,2.0956,2.0964,2.0968,2.0972,2.097,2.0913,0,0,0,0,0,2.0851,2.0867,2.0875,2.0898,2.0903,2.0906,2.0914,2.0913,2.0922,2.0925,2.093,2.0938,2.0951,2.096,2.0973,2.0999,2.1001,2.1011,2.1015,2.1018,2.102,2.1034,2.1039,2.0989,2.0989,2.0989,0,0,2.0864,2.0872,2.0882,2.0901,2.0908,2.0923,2.0909,2.0926,2.0937,2.0927,2.0949,2.0952,2.0961,2.0986,2.0996,2.0989,2.1034,2.102,2.1023,2.1024,2.1037,2.1041,2.1046,2.0991,2.099,2.099,0,0,2.0896,2.0904,2.0924,2.0931,2.0942,2.0944,2.0949,2.0958,2.096,2.0982,2.0975,2.0987,2.101,2.1017,2.1024,2.1058,2.1051,2.1062,2.108,2.1093,2.1097,2.1101,2.1112,2.1117,2.1064,2.1065,2.1065,0,2.0911,2.0935,2.0935,2.0952,2.0961,2.0953,2.0973,2.098,2.0994,2.0999,2.0992,2.102,2.1026,2.1051,2.106,2.1065,2.107,2.1061,2.1097,2.11,2.1104,2.1115,2.1119,2.1066,2.1066,2.1065,2.1065,0,2.0953,2.0969,2.0984,2.0999,2.1008,2.1027,2.1028,2.1038,2.1036,2.1038,2.1059,2.1066,2.1079,2.1085,2.1083,2.111,2.1105,2.1097,2.1083,2.1109,2.112,2.1124,2.1067,2.1067,2.1067,2.1066,0,0,2.0994,2.1008,2.1014,2.102,2.1032,2.1044,2.1062,2.1076,2.1084,2.1094,2.1108,2.1128,2.112,2.1128,2.1126,2.1138,2.1164,2.1128,2.1128,2.1134,2.1194,2.1199,2.1204,2.116,2.116,2.1161,2.1193,0,2.1026,2.1059,2.1059,2.1088,2.1103,2.1096,2.1111,2.1119,2.1122,2.1134,2.1136,2.115,2.114,2.1144,2.1155,2.1158,2.1175,2.1156,2.1172,2.1173,2.117,2.121,2.1216,2.1246,2.1197,2.1197,2.1198,0,2.1069,2.1081,2.1112,2.1121,2.1127,2.1141,2.1153,2.1166,2.1174,2.1175,2.1183,2.118,2.1197,2.1182,2.1205,2.1192,2.1198,2.1201,2.1202,2.1203,2.1187,2.1212,2.1255,2.126,2.1204,2.1204,2.1203,0,2.1095,2.1119,2.1141,2.1146,2.1158,2.1167,2.1172,2.118,2.1189,2.1199,2.1204,2.1217,2.1223,2.1232,2.1232,2.1221,2.1255,2.124,2.1256,2.1256,2.1263,2.1262,2.1307,2.1268,2.1268,2.1267,2.1267,0,2.1131,2.1151,2.1153,2.1166,2.1187,2.1186,2.1207,2.121,2.1218,2.1231,2.1225,2.1237,2.1236,2.1248,2.1248,2.1266,2.1269,2.127,2.127,2.127,2.127,2.1274,2.1272,2.1269,2.1268,2.1268,2.1268,0,2.1165,2.1167,2.119,2.1199,2.1202,2.1217,2.1223,2.1236,2.1238,2.1254,2.1258,2.1261,2.1275,2.1275,2.1291,2.129,2.1313,2.1311,2.1311,2.131,2.1325,2.1323,2.1374,2.1381,2.1337,2.1337,2.1338,0,2.1188,2.1202,2.1213,2.1221,2.1227,2.1241,2.125,2.1249,2.1258,2.1269,2.128,2.1293,2.1304,2.1326,2.1329,2.1341,2.1339,2.1356,2.134,2.134,2.1338,2.1337,2.1339,2.1358,2.1359,2.1359,2.136,0,2.1227,2.1228,2.1241,2.1254,2.1265,2.1275,2.1284,2.1292,2.1292,2.1302,2.1317,2.1325,2.1342,2.1355,2.1366,2.137,2.1365,2.1364,2.1368,2.1369,2.1369,2.1369,2.1318,2.1363,2.1363,2.1363,2.1362,2.1362,2.1256,2.1268,2.1278,2.1292,2.1299,2.1308,2.132,2.1324,2.1336,2.135,2.1348,2.1364,2.1372,2.1387,2.1392,2.1404,2.1398,2.1404,2.1405,2.1407,2.1408,2.1367,2.1406,2.1406,2.1406,2.1406,2.1406,0,2.1295,2.1301,2.1314,2.1328,2.1339,2.1334,2.1344,2.1353,2.1368,2.1376,2.1387,2.1403,2.1416,2.142,2.1432,2.144,2.1438,2.1444,2.1443,2.1444,2.1413,2.1408,2.1445,2.1445,2.1445,2.1445,2.1445,2.1445,2.1317,2.1338,2.1339,2.1363,2.1369,2.1385,2.1391,2.1399,2.1405,2.1424,2.1435,2.1438,2.1444,2.1456,2.1467,2.1468,2.1473,2.1479,2.1479,2.145,2.1446,2.1442,2.1438,2.148,2.148,2.1508,2.1508,2.1509]}]]